Location: *
(55.6049°S, 142.1985°W)
Time: 15:27:11
(UTC+00:00)

Meteor 2-16 Rocket - Pass Details

Date: 12 May 2021
Orbit: 941 x 957 km, 82.6° (Epoch: 18 June)

Event Time Altitude Azimuth Distance (km) Brightness Sun altitude
Rises 15:53:53 0° 193° (SSW) 3,652 7.2 -11.1°
Reaches altitude 10° 15:56:24 10° 193° (SSW) 2,702 6.5 -10.7°
Maximum altitude 16:02:36 84° 279° (W) 971 4.5 -9.9°
Drops below altitude 10° 16:08:45 10° 6° (N) 2,681 7.2 -9.1°
Sets 16:11:14 0° 7° (N) 3,621 7.9 -8.8°
